sat.trackr.live / text

‹ back to catalog

SITRO-AIS 20

NORAD 61758 · 2024-199Z

PAYLOAD ACTIVE UNKNOWN

§ Identity

Operator
Country
CIS
Launch date
2024-11-04
Launch site
VOSTO
Launch vehicle
Mass (kg)
RCS (m²)

External: N2YO · Heavens-Above · Gunter

§ Orbital elements

Epoch: 2026-05-25T04:32:05.883072Z

Period
96.14 min
Inclination
97.3261°
Eccentricity
0.0007215
Mean motion
14.97814128 rev/d
Perigee alt
568.6 km
Apogee alt
578.7 km
Semi-major
6,951.8 km
B*
2.0038e-4
RAAN
346.1882°
Arg perigee
132.6252°
Mean anomaly
227.5581°
Rev number
13,169

§ Raw data

SITRO-AIS 201 61758U 24199Z   26145.18895698  .00002302  00000+0  20038-3 0  99962 61758  97.3261 346.1882 0007215 132.6252 227.5581 14.97814128131690

JSON: /api/v1/satellites/61758 · /tle

For live sub-satellite position, see the globe view (requires WebGL).

§ Visibility from observer

Set your observer location to see the next 7 days of passes ≥ 10°. The values pass through the URL so the page stays shareable.

No JS? Fill the form by hand. The geolocation button needs JavaScript.

§ Radio — SatNOGS DB

ModeDescriptionDownlinkUplink
GMSK USP Mode U - GMSK2k4 - USP 401.155 MHz

1 transmitter · refreshed weekly from db.satnogs.org